Camdenton, MO

8:37 AM CDT on June 28, 2017 (GMT -0500)
Camdenton

Weather History for KH21 - December, 2012

Change the Weather History Date:

Saturday, December 1, 2012

  Actual Average (KAIZ) Record (KAIZ)
Temperature  
Mean Temperature 59 °F -  
Max Temperature 68 °F 49 °F 69 °F (2012)
Min Temperature 50 °F 31 °F 15 °F (2002)
Degree Days  
Heating Degree Days 6    
Growing Degree Days 9 (Base 50)    
Moisture  
Dew Point 52 °F    
Average Humidity 73    
Maximum Humidity 94    
Minimum Humidity 60    
Precipitation  
Precipitation 0.00 in - - ()
Sea Level Pressure  
Sea Level Pressure 29.96 in    
Wind  
Wind Speed 10 mph ()    
Max Wind Speed 18 mph    
Max Gust Speed 28 mph    
Visibility 9.9 miles    
Events      
Averages and records for this station are not official NWS values.
T = Trace of Precipitation, MM = Missing Value Source: Averaged Metar Reports

Daily Weather History Graph

Daily Weather History Graph

Search for Another Location

Airport or City:

Trip Planner

Search our weather history database for the weather conditions in past years. The results will help you decide how hot, cold, wet, or windy it might be!

Date:

Astronomy

Dec. 01, 2012 Rise Set
Actual Time 7:08 AM CST 4:51 PM CST
Civil Twilight 6:39 AM CST 5:20 PM CST
Nautical Twilight 6:06 AM CST 5:53 PM CST
Astronomical Twilight 5:34 AM CST 6:24 PM CST
Moon 7:41 PM CST (12/1) 9:22 AM CST (12/1)
Length of Visible Light 10h 41m
Length of Day
9h 43m
Waning Gibbous, 91% of the Moon is Illuminated
Dec 1
Waning Gibbous
Dec 6
Last Quarter
Dec 13
New
Dec 19
First Quarter
Dec 28
Full

Hourly Weather History & Observations

Time (CST) Temp. Dew Point Humidity Pressure Visibility Wind Dir Wind Speed Gust Speed Precip Events Conditions
12:15 AM 50.0 °F 44.6 °F 82% 30.08 in 10.0 mi SE 8.1 mph - N/A   Clear
12:35 AM 51.8 °F 46.4 °F 82% 30.09 in 10.0 mi SSE 6.9 mph - N/A   Clear
1:15 AM 51.8 °F 46.4 °F 82% 30.08 in 10.0 mi SSE 6.9 mph - N/A   Overcast
1:35 AM 53.6 °F 48.2 °F 82% 30.08 in 10.0 mi SSE 6.9 mph - N/A   Overcast
1:55 AM 53.6 °F 48.2 °F 82% 30.08 in 10.0 mi SSE 8.1 mph - N/A   Overcast
2:15 AM 53.6 °F 48.2 °F 82% 30.08 in 10.0 mi SE 5.8 mph - N/A   Overcast
2:55 AM 53.6 °F 48.2 °F 82% 30.08 in 10.0 mi SE 8.1 mph - N/A   Overcast
3:15 AM 53.6 °F 48.2 °F 82% 30.07 in 10.0 mi SE 6.9 mph - N/A   Overcast
3:35 AM 53.6 °F 50.0 °F 88% 30.07 in 10.0 mi SE 9.2 mph - N/A   Overcast
4:15 AM 53.6 °F 50.0 °F 88% 30.05 in 10.0 mi SE 10.4 mph - N/A   Overcast
4:35 AM 55.4 °F 50.0 °F 82% 30.05 in 10.0 mi SE 12.7 mph - N/A   Overcast
5:15 AM 53.6 °F 50.0 °F 88% 30.05 in 10.0 mi SE 12.7 mph - N/A   Overcast
5:35 AM 53.6 °F 50.0 °F 88% 30.04 in 10.0 mi SE 12.7 mph - N/A   Overcast
6:35 AM 53.6 °F 50.0 °F 88% 30.03 in 10.0 mi SE 13.8 mph - N/A   Clear
7:15 AM 51.8 °F 50.0 °F 94% 30.02 in 7.0 mi SE 11.5 mph 18.4 mph N/A   Clear
7:55 AM 53.6 °F 50.0 °F 88% 30.02 in 10.0 mi SE 11.5 mph - N/A   Clear
8:15 AM 53.6 °F 50.0 °F 88% 30.02 in 10.0 mi SE 10.4 mph 17.3 mph N/A   Clear
8:35 AM 53.6 °F 50.0 °F 88% 30.01 in 7.0 mi SE 12.7 mph 17.3 mph N/A   Clear
9:35 AM 59.0 °F 51.8 °F 77% 30.02 in 10.0 mi SSE 12.7 mph - N/A   Mostly Cloudy
10:15 AM 60.8 °F 53.6 °F 77% 30.00 in 10.0 mi SSE 13.8 mph 25.3 mph N/A   Overcast
10:35 AM 62.6 °F 53.6 °F 72% 29.99 in 10.0 mi South 15.0 mph 23.0 mph N/A   Overcast
11:15 AM 62.6 °F 53.6 °F 72% 29.98 in 10.0 mi SSE 17.3 mph 26.5 mph N/A   Overcast
11:35 AM 62.6 °F 53.6 °F 72% 29.96 in 10.0 mi SSE 15.0 mph 25.3 mph N/A   Mostly Cloudy
12:15 PM 64.4 °F 53.6 °F 68% 29.95 in 10.0 mi SSE 15.0 mph 20.7 mph N/A   Mostly Cloudy
12:35 PM 64.4 °F 53.6 °F 68% 29.93 in 10.0 mi SSE 15.0 mph 20.7 mph N/A   Overcast
1:15 PM 66.2 °F 53.6 °F 64% 29.91 in 10.0 mi SSE 16.1 mph 24.2 mph N/A   Mostly Cloudy
1:35 PM 68.0 °F 53.6 °F 60% 29.91 in 10.0 mi SSE 15.0 mph 24.2 mph N/A   Overcast
1:55 PM 68.0 °F 53.6 °F 60% 29.90 in 10.0 mi SSE 16.1 mph 27.6 mph N/A   Overcast
2:15 PM 68.0 °F 53.6 °F 60% 29.90 in 10.0 mi SSE 18.4 mph 24.2 mph N/A   Overcast
2:35 PM 68.0 °F 53.6 °F 60% 29.89 in 10.0 mi SSE 17.3 mph 26.5 mph N/A   Overcast
2:55 PM 68.0 °F 53.6 °F 60% 29.90 in 10.0 mi SSE 15.0 mph 21.9 mph N/A   Overcast
3:15 PM 68.0 °F 53.6 °F 60% 29.90 in 10.0 mi SSE 11.5 mph 19.6 mph N/A   Overcast
3:35 PM 68.0 °F 53.6 °F 60% 29.90 in 10.0 mi SSE 10.4 mph 19.6 mph N/A   Overcast
3:55 PM 68.0 °F 53.6 °F 60% 29.89 in 10.0 mi SSE 12.7 mph - N/A   Mostly Cloudy
4:15 PM 68.0 °F 53.6 °F 60% 29.88 in 10.0 mi SSE 12.7 mph 17.3 mph N/A   Overcast
4:35 PM 68.0 °F 53.6 °F 60% 29.88 in 10.0 mi SSE 13.8 mph 20.7 mph N/A   Mostly Cloudy
4:55 PM 64.4 °F 53.6 °F 68% 29.88 in 10.0 mi SSE 10.4 mph - N/A   Scattered Clouds
5:15 PM 64.4 °F 53.6 °F 68% 29.90 in 10.0 mi SSE 12.7 mph 17.3 mph N/A   Mostly Cloudy
5:55 PM 64.4 °F 53.6 °F 68% 29.91 in 10.0 mi SSE 11.5 mph - N/A   Overcast
6:15 PM 64.4 °F 53.6 °F 68% 29.91 in 10.0 mi SSE 12.7 mph - N/A   Overcast
6:35 PM 64.4 °F 53.6 °F 68% 29.92 in 10.0 mi SSE 11.5 mph 18.4 mph N/A   Overcast
6:55 PM 64.4 °F 53.6 °F 68% 29.92 in 10.0 mi SSE 11.5 mph 20.7 mph N/A   Overcast
7:15 PM 64.4 °F 53.6 °F 68% 29.92 in 10.0 mi SSE 11.5 mph 17.3 mph N/A   Overcast
7:35 PM 64.4 °F 53.6 °F 68% 29.91 in 10.0 mi SSE 12.7 mph 20.7 mph N/A   Overcast
7:55 PM 64.4 °F 53.6 °F 68% 29.92 in 10.0 mi SSE 12.7 mph 18.4 mph N/A   Overcast
8:15 PM 64.4 °F 53.6 °F 68% 29.91 in 10.0 mi SSE 11.5 mph 17.3 mph N/A   Overcast
8:35 PM 64.4 °F 53.6 °F 68% 29.92 in 10.0 mi SSE 11.5 mph - N/A   Overcast
8:55 PM 64.4 °F 53.6 °F 68% 29.92 in 10.0 mi SSE 12.7 mph 18.4 mph N/A   Overcast
9:15 PM 64.4 °F 53.6 °F 68% 29.92 in 10.0 mi South 9.2 mph 19.6 mph N/A   Overcast
9:35 PM 64.4 °F 53.6 °F 68% 29.92 in 10.0 mi SSE 11.5 mph 16.1 mph N/A   Mostly Cloudy
9:55 PM 64.4 °F 55.4 °F 73% 29.93 in 10.0 mi SSE 10.4 mph - N/A   Overcast
10:15 PM 64.4 °F 55.4 °F 73% 29.93 in 10.0 mi SSE 12.7 mph 16.1 mph N/A   Overcast
10:35 PM 64.4 °F 55.4 °F 73% 29.93 in 10.0 mi SSE 9.2 mph - N/A   Overcast
10:55 PM 64.4 °F 55.4 °F 73% 29.94 in 10.0 mi South 8.1 mph - N/A   Overcast
11:15 PM 64.4 °F 55.4 °F 73% 29.94 in 10.0 mi SSE 9.2 mph - N/A   Overcast
11:35 PM 62.6 °F 55.4 °F 77% 29.93 in 10.0 mi SSE 9.2 mph - N/A   Mostly Cloudy
11:55 PM 62.6 °F 55.4 °F 77% 29.93 in 10.0 mi South 9.2 mph - N/A   Scattered Clouds